| time (UTC) | temp F | wind direction | speed knots | gust knots | rain 1hr in | rain 24hr in | rain mn in | humidity % | barometer mb |
| 20260502195100 | 57 | 192 | 0.9 | 3.5 | 0.00 | 0.09 | 0.09 | 82 | 1012.0 |
| 20260502193603 | 57 | 144 | 0.9 | 3.5 | 0.00 | 0.09 | 0.09 | 82 | 1012.2 |
| 20260502192604 | 57 | 176 | 0.9 | 3.5 | 0.00 | 0.09 | 0.09 | 82 | 1012.2 |
| 20260502191602 | 57 | 208 | 0.0 | 3.5 | 0.00 | 0.09 | 0.09 | 83 | 1012.4 |
| 20260502190605 | 56 | 178 | 0.9 | 4.3 | 0.00 | 0.09 | 0.09 | 84 | 1012.4 |
| 20260502185604 | 57 | 153 | 0.9 | 3.5 | 0.00 | 0.09 | 0.09 | 86 | 1012.4 |
| 20260502184603 | 56 | 182 | 0.9 | 4.3 | 0.00 | 0.09 | 0.09 | 87 | 1012.6 |
| 20260502183603 | 56 | 81 | 1.7 | 4.3 | 0.00 | 0.09 | 0.09 | 87 | 1012.7 |
| 20260502183035 | 56 | 163 | 0.9 | 4.3 | 0.00 | 0.09 | 0.09 | 88 | 1012.8 |
| 20260502181602 | 55 | 173 | 0.9 | 2.6 | 0.00 | 0.09 | 0.09 | 90 | 1012.9 |
| 20260502181034 | 54 | 144 | 0.9 | 5.2 | 0.00 | 0.09 | 0.09 | 89 | 1013.0 |
| 20260502163555 | 53 | 316 | 0.9 | 4.3 | 0.01 | 0.09 | 0.09 | 90 | 1014.0 |
| 20260502162554 | 53 | 105 | 0.9 | 3.5 | 0.00 | 0.08 | 0.08 | 90 | 1014.3 |
| 20260502161553 | 53 | 102 | 0.9 | 1.7 | 0.00 | 0.08 | 0.08 | 91 | 1014.5 |
| 20260502160554 | 53 | 152 | 0.9 | 3.5 | 0.01 | 0.08 | 0.08 | 91 | 1014.4 |
| 20260502152033 | 53 | 203 | 0.9 | 3.5 | 0.02 | 0.08 | 0.08 | 91 | 1014.1 |
| 20260502150551 | 53 | 182 | 0.9 | 1.7 | 0.02 | 0.07 | 0.07 | 91 | 1014.2 |
| 20260502130550 | 52 | 0 | 1.7 | 2.6 | 0.01 | 0.02 | 0.02 | 90 | 1013.2 |
| 20260502123546 | 52 | 359 | 1.7 | 2.6 | 0.00 | 0.01 | 0.01 | 90 | 1013.1 |
| 20260502122546 | 52 | 359 | 1.7 | 4.3 | 0.01 | 0.01 | 0.01 | 90 | 1012.8 |
| 20260502121547 | 52 | 359 | 0.9 | 2.6 | 0.01 | 0.01 | 0.01 | 90 | 1012.7 |
| 20260502120545 | 52 | 359 | 0.9 | 2.6 | 0.01 | 0.01 | 0.01 | 90 | 1012.8 |
| 20260502115544 | 52 | 359 | 0.9 | 1.7 | 0.01 | 0.01 | 0.01 | 89 | 1012.7 |
| 20260502114545 | 52 | 359 | 0.9 | 1.7 | 0.01 | 0.01 | 0.01 | 89 | 1012.9 |
| 20260502113545 | 52 | 359 | 0.9 | 4.3 | 0.01 | 0.01 | 0.01 | 89 | 1012.9 |
| 20260502112543 | 52 | 359 | 1.7 | 4.3 | 0.00 | 0.00 | 0.00 | 89 | 1012.9 |
| 20260502111540 | 53 | 358 | 0.9 | 3.5 | 0.00 | 0.00 | 0.00 | 89 | 1013.1 |
| 20260502110541 | 53 | 357 | 0.0 | 1.7 | 0.00 | 0.00 | 0.00 | 88 | 1013.1 |
| 20260502110033 | 53 | 357 | 0.9 | 3.5 | 0.00 | 0.00 | 0.00 | 88 | 1013.1 |
| 20260502104541 | 53 | 356 | 0.9 | 4.3 | 0.00 | 0.00 | 0.00 | 88 | 1013.1 |
| 20260502104024 | 53 | 47 | 0.9 | 3.5 | 0.00 | 0.00 | 0.00 | 89 | 1013.1 |
| 20260502102540 | 53 | 57 | 0.9 | 3.5 | 0.00 | 0.00 | 0.00 | 89 | 1013.0 |
| 20260502101541 | 53 | 126 | 0.9 | 2.6 | 0.00 | 0.00 | 0.00 | 90 | 1013.1 |
| 20260502100540 | 53 | 131 | 0.0 | 0.0 | 0.00 | 0.00 | 0.00 | 91 | 1013.1 |
| 20260502090535 | 52 | 138 | 0.0 | 0.0 | 0.00 | 0.00 | 0.00 | 91 | 1012.9 |
| 20260502071532 | 52 | 140 | 0.0 | 0.0 | 0.00 | 0.00 | 0.00 | 90 | 1012.5 |
| 20260502070532 | 52 | 140 | 0.0 | 0.0 | 0.00 | 0.00 | 0.00 | 90 | 1012.3 |
| 20260502065531 | 52 | 140 | 0.0 | 0.0 | 0.00 | 0.00 | 0.00 | 90 | 1012.5 |
| 20260502065458 | 52 | 140 | 0.0 | 0.0 | 0.00 | 0.00 | 0.00 | 90 | 1012.3 |
| 20260502063532 | 52 | 140 | 0.0 | 0.0 | 0.00 | 0.00 | 0.00 | 90 | 1012.4 |
| 20260502062529 | 52 | 140 | 0.0 | 0.0 | 0.00 | 0.00 | 0.00 | 89 | 1012.5 |
| 20260502062008 | 52 | 140 | 0.0 | 0.0 | 0.00 | 0.00 | 0.00 | 89 | 1012.5 |
| 20260502060531 | 52 | 140 | 0.0 | 0.0 | 0.00 | 0.00 | 0.00 | 89 | 1012.6 |
| 20260502055529 | 52 | 140 | 0.0 | 0.0 | 0.00 | 0.00 | 0.00 | 89 | 1012.7 |
| 20260502054528 | 52 | 140 | 0.0 | 0.0 | 0.00 | 0.00 | 0.00 | 89 | 1013.3 |
| 20260502053529 | 53 | 140 | 0.0 | 0.0 | 0.00 | 0.00 | 0.00 | 88 | 1012.9 |
| 20260502052530 | 53 | 140 | 0.0 | 0.0 | 0.00 | 0.00 | 0.00 | 88 | 1012.9 |
| 20260502051523 | 53 | 140 | 0.0 | 0.0 | 0.00 | 0.00 | 0.00 | 88 | 1013.1 |
| 20260502050524 | 53 | 140 | 0.0 | 0.0 | 0.00 | 0.00 | 0.00 | 87 | 1013.1 |
| 20260502045521 | 53 | 140 | 0.0 | 0.0 | 0.00 | 0.00 | 0.00 | 87 | 1013.1 |
| 20260502044520 | 53 | 140 | 0.0 | 0.0 | 0.00 | 0.00 | 0.00 | 87 | 1013.1 |
| 20260502043520 | 53 | 140 | 0.0 | 0.0 | 0.00 | 0.00 | 0.00 | 86 | 1013.1 |
| 20260502042521 | 53 | 140 | 0.0 | 0.0 | 0.00 | 0.00 | 0.00 | 86 | 1013.2 |
| 20260502041518 | 53 | 140 | 0.0 | 0.0 | 0.00 | 0.00 | 0.00 | 86 | 1013.3 |
| 20260502041432 | 53 | 140 | 0.0 | 0.0 | 0.00 | 0.00 | 0.00 | 85 | 1013.4 |
| 20260502035513 | 53 | 140 | 0.0 | 0.0 | 0.00 | 0.00 | 0.00 | 85 | 1013.4 |
| 20260502035001 | 53 | 140 | 0.0 | 0.0 | 0.00 | 0.00 | 0.00 | 85 | 1013.4 |
| 20260502033945 | 53 | 140 | 0.0 | 0.9 | 0.00 | 0.00 | 0.00 | 85 | 1013.4 |
| 20260502032513 | 53 | 140 | 0.0 | 0.9 | 0.00 | 0.00 | 0.00 | 85 | 1013.4 |
| 20260502031515 | 53 | 140 | 0.0 | 0.9 | 0.00 | 0.00 | 0.00 | 85 | 1013.4 |
| 20260502030515 | 53 | 140 | 0.0 | 1.7 | 0.00 | 0.00 | 0.00 | 84 | 1013.5 |
| 20260502025922 | 53 | 138 | 0.0 | 1.7 | 0.00 | 0.00 | 0.00 | 84 | 1013.6 |
| 20260502025705 | 53 | 139 | 0.0 | 2.6 | 0.00 | 0.00 | 0.00 | 84 | 1013.5 |
| 20260502023511 | 54 | 137 | 0.0 | 2.6 | 0.00 | 0.00 | 0.00 | 84 | 1013.5 |
| 20260502022511 | 54 | 133 | 0.9 | 2.6 | 0.00 | 0.00 | 0.00 | 84 | 1013.6 |
| 20260502021507 | 54 | 115 | 0.9 | 2.6 | 0.00 | 0.00 | 0.00 | 84 | 1013.6 |
| 20260502020509 | 54 | 101 | 0.9 | 2.6 | 0.00 | 0.00 | 0.00 | 84 | 1013.6 |
| 20260502015508 | 54 | 88 | 0.0 | 1.7 | 0.00 | 0.00 | 0.00 | 84 | 1013.6 |
| 20260502014508 | 53 | 88 | 0.0 | 1.7 | 0.00 | 0.00 | 0.00 | 84 | 1013.5 |
| 20260502013507 | 53 | 88 | 0.0 | 0.0 | 0.00 | 0.00 | 0.00 | 84 | 1013.6 |
| 20260502012507 | 53 | 88 | 0.0 | 0.9 | 0.00 | 0.00 | 0.00 | 83 | 1013.6 |
| 20260502011507 | 53 | 88 | 0.0 | 0.9 | 0.00 | 0.00 | 0.00 | 82 | 1013.7 |
| 20260502010509 | 54 | 88 | 0.0 | 0.9 | 0.00 | 0.00 | 0.00 | 80 | 1013.3 |
| 20260502005509 | 54 | 88 | 0.0 | 0.0 | 0.00 | 0.00 | 0.00 | 79 | 1013.4 |
| 20260502004507 | 54 | 88 | 0.0 | 0.9 | 0.00 | 0.00 | 0.00 | 79 | 1013.3 |
| 20260502003459 | 55 | 88 | 0.0 | 0.9 | 0.00 | 0.00 | 0.00 | 78 | 1013.1 |
| 20260502002934 | 55 | 88 | 0.0 | 1.7 | 0.00 | 0.00 | 0.00 | 78 | 1013.0 |
| 20260502001939 | 55 | 84 | 0.0 | 1.7 | 0.00 | 0.00 | 0.00 | 78 | 1013.1 |
| 20260502000459 | 55 | 142 | 0.0 | 0.9 | 0.00 | 0.00 | 0.00 | 77 | 1012.9 |
| 20260501235931 | 56 | 142 | 0.0 | 1.7 | 0.00 | 0.00 | 0.00 | 77 | 1013.2 |
| 20260501234455 | 56 | 142 | 0.0 | 2.6 | 0.00 | 0.00 | 0.00 | 76 | 1013.1 |
| 20260501233454 | 56 | 152 | 0.0 | 3.5 | 0.00 | 0.00 | 0.00 | 76 | 1013.0 |
| 20260501232454 | 56 | 139 | 0.9 | 2.6 | 0.00 | 0.00 | 0.00 | 75 | 1013.0 |
| 20260501231449 | 56 | 163 | 0.9 | 3.5 | 0.00 | 0.00 | 0.00 | 75 | 1012.9 |
| 20260501230449 | 56 | 177 | 0.9 | 2.6 | 0.00 | 0.00 | 0.00 | 74 | 1013.0 |
| 20260501225448 | 56 | 220 | 0.0 | 2.6 | 0.00 | 0.00 | 0.00 | 73 | 1012.8 |
| 20260501224447 | 56 | 260 | 0.9 | 2.6 | 0.00 | 0.00 | 0.00 | 73 | 1013.1 |
| 20260501223447 | 56 | 91 | 0.9 | 3.5 | 0.00 | 0.00 | 0.00 | 73 | 1013.3 |
| 20260501222923 | 56 | 162 | 0.9 | 5.2 | 0.00 | 0.00 | 0.00 | 74 | 1013.5 |
| 20260501221445 | 56 | 121 | 0.9 | 5.2 | 0.00 | 0.00 | 0.00 | 74 | 1013.5 |
| 20260501220446 | 56 | 187 | 0.9 | 3.5 | 0.00 | 0.00 | 0.00 | 73 | 1013.7 |
| 20260501215446 | 56 | 155 | 0.9 | 3.5 | 0.00 | 0.00 | 0.00 | 75 | 1013.7 |
| 20260501214922 | 56 | 158 | 0.9 | 3.5 | 0.00 | 0.00 | 0.00 | 75 | 1013.6 |
| 20260501213446 | 56 | 196 | 1.7 | 4.3 | 0.00 | 0.00 | 0.00 | 73 | 1013.8 |
| 20260501212446 | 56 | 156 | 1.7 | 5.2 | 0.00 | 0.00 | 0.00 | 73 | 1013.6 |
| 20260501211443 | 56 | 146 | 1.7 | 6.1 | 0.00 | 0.00 | 0.00 | 73 | 1013.7 |
| 20260501210443 | 56 | 73 | 0.9 | 3.5 | 0.00 | 0.00 | 0.00 | 75 | 1013.6 |
| 20260501205444 | 57 | 175 | 1.7 | 7.0 | 0.00 | 0.00 | 0.00 | 75 | 1013.7 |
| 20260501204442 | 58 | 138 | 1.7 | 6.1 | 0.00 | 0.00 | 0.00 | 72 | 1013.8 |
| 20260501203444 | 60 | 158 | 1.7 | 10.4 | 0.00 | 0.00 | 0.00 | 67 | 1013.7 |
| 20260501202443 | 62 | 182 | 0.9 | 5.2 | 0.00 | 0.00 | 0.00 | 59 | 1013.7 |
| 20260501201444 | 63 | 202 | 1.7 | 7.0 | 0.00 | 0.00 | 0.00 | 55 | 1013.6 |
| 20260501200442 | 64 | 236 | 1.7 | 7.8 | 0.00 | 0.00 | 0.00 | 54 | 1013.7 |
| 20260501195436 | 66 | 302 | 1.7 | 7.0 | 0.00 | 0.00 | 0.00 | 53 | 1013.9 |